Sitka, AK

3:10 AM AKDT on June 27, 2017 (GMT -0800)
Sitka Rocky Gutierrez

Weather History for PASI - November, 2013

Change the Weather History Date:

Thursday, November 21, 2013

  Actual Average Record
Temperature  
Mean Temperature 44 °F -  
Max Temperature 48 °F 41 °F 55 °F (1949)
Min Temperature 39 °F 33 °F 14 °F (1963)
Degree Days  
Heating Degree Days 22    
Moisture  
Dew Point 43 °F    
Average Humidity 88    
Maximum Humidity 93    
Minimum Humidity 79    
Precipitation  
Precipitation 3.10 in - - ()
Sea Level Pressure  
Sea Level Pressure 29.98 in    
Wind  
Wind Speed 15 mph (South)    
Max Wind Speed 29 mph    
Max Gust Speed 37 mph    
Visibility 3 miles    
Events Rain    
Averages and records for this station are not official NWS values.
T = Trace of Precipitation, MM = Missing Value Source: NWS Daily Summary

Daily Weather History Graph

Daily Weather History Graph

Search for Another Location

Airport or City:

Trip Planner

Search our weather history database for the weather conditions in past years. The results will help you decide how hot, cold, wet, or windy it might be!

Date:

Astronomy

Nov. 21, 2013 Rise Set
Actual Time 7:56 AM AKST 3:37 PM AKST
Civil Twilight 7:11 AM AKST 4:22 PM AKST
Nautical Twilight 6:23 AM AKST 5:11 PM AKST
Astronomical Twilight 5:37 AM AKST 5:56 PM AKST
Moon 7:29 PM AKST (11/21) 11:01 AM AKST (11/21)
Length of Visible Light 9h 11m
Length of Day
7h 40m
Waning Gibbous, 84% of the Moon is Illuminated
Nov 21
Waning Gibbous
Nov 25
Last Quarter
Dec 2
New
Dec 9
First Quarter
Dec 17
Full

Hourly Weather History & Observations

Time (AKST) Temp. Windchill Dew Point Humidity Pressure Visibility Wind Dir Wind Speed Gust Speed Precip Events Conditions
12:50 AM 39.2 °F 32.0 °F 35.6 °F 87% 29.93 in 3.0 mi SSE 11.5 mph 19.6 mph 0.30 in Rain Rain
12:53 AM 39.9 °F 34.5 °F 36.0 °F 86% 29.93 in 3.0 mi SSE 8.1 mph 19.6 mph 0.31 in Rain Rain
1:09 AM 45.0 °F 36.0 °F 39.9 °F 82% 29.93 in 4.0 mi SW 25.3 mph 36.8 mph N/A Rain Heavy Rain
1:39 AM 45.0 °F 35.4 °F 39.9 °F 82% 29.93 in 3.0 mi SSW 28.8 mph 36.8 mph N/A Rain Heavy Rain
1:53 AM 44.1 °F 35.9 °F 39.0 °F 82% 29.93 in 5.0 mi SSW 19.6 mph 34.5 mph N/A Rain Heavy Rain
2:49 AM 44.6 °F 36.4 °F 39.2 °F 81% 29.92 in 3.0 mi South 20.7 mph 28.8 mph 0.16 in Rain Rain
3:16 AM 45.0 °F 37.4 °F 39.9 °F 82% 29.91 in 4.0 mi SSW 18.4 mph 31.1 mph 0.07 in Rain Rain
3:53 AM 41.0 °F 32.5 °F 36.0 °F 82% 29.88 in 4.0 mi ESE 17.3 mph - 0.20 in Rain Rain
4:00 AM 42.1 °F 33.9 °F 36.0 °F 79% 29.88 in 4.0 mi East 17.3 mph - 0.03 in Rain Rain
4:53 AM 42.1 °F 34.2 °F 37.9 °F 85% 29.86 in 2.0 mi East 16.1 mph - 0.37 in Rain Heavy Rain
4:57 AM 42.1 °F 34.9 °F 37.9 °F 85% 29.86 in 1.8 mi East 13.8 mph - 0.02 in Rain Heavy Rain
5:34 AM 42.1 °F 37.7 °F 39.0 °F 89% 29.86 in 2.0 mi ESE 6.9 mph 16.1 mph 0.25 in Rain Rain
5:46 AM 44.1 °F 40.1 °F 41.0 °F 89% 29.87 in 1.8 mi South 6.9 mph - 0.29 in Rain Rain
5:53 AM 48.0 °F - 44.1 °F 86% 29.87 in 2.0 mi SW 16.1 mph 21.9 mph 0.31 in Rain Rain
6:24 AM 48.0 °F - 45.0 °F 89% 29.86 in 3.0 mi WSW 19.6 mph 25.3 mph 0.06 in Rain Rain
6:46 AM 48.0 °F - 45.0 °F 89% 29.87 in 1.8 mi SW 19.6 mph 27.6 mph 0.10 in Rain Rain
6:53 AM 48.0 °F - 45.0 °F 89% 29.88 in 1.8 mi SW 23.0 mph 28.8 mph 0.11 in Rain Rain
7:16 AM 48.0 °F - 45.0 °F 89% 29.88 in 2.0 mi SW 20.7 mph 31.1 mph 0.02 in Rain Rain
7:28 AM 48.0 °F - 45.0 °F 89% 29.89 in 1.8 mi WSW 18.4 mph 27.6 mph 0.04 in Rain Rain
7:38 AM 48.0 °F - 45.0 °F 89% 29.89 in 2.0 mi SW 19.6 mph 26.5 mph 0.06 in Rain Rain
7:50 AM 48.2 °F - 44.6 °F 87% 29.89 in 2.5 mi SW 20.7 mph 28.8 mph 0.08 in Rain Rain
7:53 AM 48.0 °F - 45.0 °F 89% 29.90 in 3.0 mi WSW 18.4 mph 28.8 mph 0.09 in Rain Rain
8:01 AM 48.0 °F - 45.0 °F 89% 29.90 in 3.0 mi WSW 19.6 mph 26.5 mph 0.01 in Rain Rain
8:53 AM 48.0 °F - 45.0 °F 89% 29.92 in 2.5 mi SW 17.3 mph 27.6 mph 0.07 in Rain Rain
9:53 AM 48.0 °F - 46.0 °F 93% 29.95 in 2.0 mi SW 15.0 mph 24.2 mph 0.11 in Rain Rain
10:35 AM 48.0 °F - 45.0 °F 89% 29.97 in 3.0 mi SW 16.1 mph - 0.10 in Rain Rain
10:53 AM 48.0 °F - 45.0 °F 89% 29.98 in 2.5 mi SW 16.1 mph - 0.14 in Rain Rain
11:38 AM 48.9 °F - 46.0 °F 90% 30.00 in 1.8 mi SSW 17.3 mph - 0.10 in Rain Rain
11:53 AM 48.9 °F - 46.0 °F 90% 30.01 in 1.8 mi SSW 17.3 mph - 0.14 in Rain Rain
12:53 PM 48.0 °F - 46.0 °F 93% 30.02 in 1.5 mi SSW 11.5 mph 20.7 mph 0.18 in Rain Rain
1:22 PM 48.0 °F - 46.0 °F 93% 30.03 in 1.0 mi SSW 6.9 mph - 0.06 in Rain Rain
1:53 PM 48.0 °F - 46.0 °F 93% 30.04 in 1.5 mi SSW 10.4 mph - 0.14 in Rain Rain
2:00 PM 48.0 °F - 46.0 °F 93% 30.04 in 1.2 mi SSW 8.1 mph - 0.02 in Rain Rain
2:12 PM 48.9 °F - 46.0 °F 90% 30.05 in 1.2 mi SSW 9.2 mph - 0.06 in Rain Rain
2:53 PM 48.9 °F - 46.0 °F 90% 30.06 in 1.0 mi South 10.4 mph - 0.19 in Rain Rain
3:53 PM 48.9 °F - 46.0 °F 90% 30.08 in 1.0 mi SSW 13.8 mph - 0.09 in Rain Rain
4:00 PM 48.9 °F - 46.0 °F 90% 30.08 in 1.5 mi SSW 12.7 mph 20.7 mph 0.00 in Rain Light Rain
4:20 PM 48.9 °F - 46.0 °F 90% 30.09 in 1.5 mi South 11.5 mph - 0.03 in Rain Light Rain
4:53 PM 48.9 °F - 46.0 °F 90% 30.09 in 2.0 mi South 15.0 mph 21.9 mph 0.09 in Rain Rain
5:01 PM 48.9 °F - 46.0 °F 90% 30.09 in 3.0 mi South 15.0 mph 23.0 mph 0.01 in Rain Light Rain
5:08 PM 48.9 °F - 46.0 °F 90% 30.09 in 1.0 mi South 13.8 mph 23.0 mph 0.02 in Rain Rain
5:53 PM 48.9 °F - 45.0 °F 86% 30.11 in 1.0 mi South 12.7 mph - 0.08 in Rain Light Rain
6:00 PM 48.9 °F - 45.0 °F 86% 30.11 in 2.0 mi South 15.0 mph 21.9 mph 0.00 in Rain Light Rain
6:53 PM 48.9 °F - 45.0 °F 86% 30.12 in 3.0 mi South 13.8 mph 24.2 mph 0.03 in Rain Light Rain
7:53 PM 48.9 °F - 45.0 °F 86% 30.12 in 8.0 mi ESE 8.1 mph 23.0 mph 0.01 in   Overcast
8:31 PM 48.0 °F - 44.1 °F 86% 30.12 in 4.0 mi ESE 9.2 mph - 0.01 in Rain Light Rain
8:53 PM 48.9 °F - 45.0 °F 86% 30.13 in 7.0 mi SE 12.7 mph - 0.04 in Rain Rain
9:53 PM 48.9 °F - 44.1 °F 83% 30.13 in 5.0 mi SE 11.5 mph - 0.13 in Rain Light Rain
10:53 PM 48.0 °F - 44.1 °F 86% 30.13 in 3.0 mi ESE 10.4 mph 19.6 mph 0.18 in Rain Rain
11:53 PM 48.0 °F - 44.1 °F 86% 30.14 in 3.0 mi ESE 13.8 mph - 0.09 in Rain Light Rain